Location: Bédeille
(43.0872°N, 1.1041°E)
Time: 03:12:27
(UTC+00:00)

Cosmos 2266 Rocket - Pass Details

Date: 03 February 2023
Orbit: 933 x 1008 km, 82.9° (Epoch: 27 March)

Event Time Altitude Azimuth Distance (km) Brightness Sun altitude
Rises 17:37:30 0° 351° (N) 3,708 7.0 -5.5°
Reaches altitude 10° 17:40:03 10° 351° (N) 2,745 6.3 -6.0°
Maximum altitude 17:46:21 83° 264° (W) 980 4.1 -7.1°
Drops below altitude 10° 17:52:29 10° 177° (S) 2,674 6.5 -8.1°
Sets 17:54:56 0° 177° (S) 3,606 7.1 -8.6°
